Location: Risskov
(56.1972°N, 10.2480°E)
Time: 13:00:29
(UTC+00:00)

USA 215 - Pass Details

Date: 05 July 2020
Orbit: 1102 x 1106 km, 123.0° (Epoch: 31 July)

Event Time Altitude Azimuth Distance (km) Brightness Sun altitude
Rises 22:39:33 0° 69° (ENE) 3,926 6.3 -10.6°
Reaches altitude 10° 22:42:03 10° 71° (ENE) 2,967 5.6 -10.6°
Maximum altitude 22:48:36 75° 157° (SSE) 1,141 3.2 -10.8°
Drops below altitude 10° 22:55:09 10° 244° (WSW) 2,960 5.3 -10.9°
Sets 22:57:38 0° 246° (WSW) 3,916 6.0 -10.9°
